Showing default

MIDAS 5 (STRONGBACK), 271

Orbit data source: Space-Track

MIDAS 5 (STRONGBACK), 271 is a payload satellite owned by USAF SSD (US) in LEO that was launched on Mon, 09 Apr 1962 UTC via an ATLAS AGENA B launch vehicle from the Air Force Western Test Range (AFWTR). Payload-class satellites include a variety of spacecraft equipped with specific instruments for various scientific and technological missions. These include communications satellites like Starlink; space stations such as the ISS; scientific satellites like the Hubble; Earth observation satellites from companies like Planet Labs, Umbra, and HawkEye 360; GPS; miniature CubeSats for education and research; and military/defense satellites.

Loading next visibility...
Identifier
271, 1962-010A
Orbit
LEO
Country
Flag of USUS
Related business
Manufacturer
LMSC
Mission
Defense Early Warn
Bus & Motor
MIDAS, Unknown motor
Mass
~1,543 kg wet, ~840 kg dry
Launch date (UTC)
1962-04-09 (63 years ago)
Launch vehicle
ATLAS AGENA B
Launch site
Air Force Western Test Range (AFWTR)
Object type
Payload
Rocket body
Debris
Shape & HBR
Cyl, 4.5 m
Radar Cross Section
11.475 m², Large (>1 m²)

Expand to show TLE details & history
Last TLE update: 9 hours ago

TLE from 9 hours ago
0 MIDAS 5 (STRONGBACK)
1 00271U 62010A   25242.76543840  .00000001  00000-0 -69612-3 0  9990
2 00271  86.6800 358.0619 0327862  26.4456 335.2778  9.41307405178348
Epoch: 2025-08-30T18:22Z
TLE epoch observation values (Epoch: 2025-08-30T18:22:13.877Z)
Latitude
-0.00001°
Longitude
103.30904°
Altitude
2,818.857 km
Speed
6.681 km/s
True Right ascension
23h 52m 14s
True Declination
0° 00' 00"
Sunlit
Object was in full shadow at epoch
Visualization orbit readout
Latitude
Unknown
Longitude
Unknown
Altitude
Unknown
Speed
Unknown
Apparent Right ascension
Unknown
Apparent Declination
Unknown
Sunlit
N/A
Visualization observer readout
Local Sidereal Time
19:15:59
Azimuth
Unknown
Elevation
Unknown
Doppler factor
Unknown
Orbital elements
Apogee altitude
3,405.176 km
Perigee altitude
2,784.026 km
Semi-major axis
9,472.738 km
Eccentricity
0.03279
Inclination
86.68°
RAAN
358.0619°
Arg. of periapsis
26.4456°
True anomaly
333.64611°
Mean anomaly
335.2778°
Eccentric anomaly
334.46814°
Mean motion
2.35413 °/min
Orbital period
152.92 mins
BSTAR
-0.00069612
Loading maneuver chart data...
Computing Atmospheric mass density...
Loading historical data...
Loading historical data...
Loading historical data...
Loading historical data...
Loading historical data...
Loading historical data...
Loading historical data...

Documentation

Showing up to 5 results
|